TimeSAST,TemperatureF,Dew PointF,Humidity,Sea Level PressureIn,VisibilityMPH,Wind Direction,Wind SpeedMPH,Gust SpeedMPH,PrecipitationIn,Events,Conditions,WindDirDegrees,DateUTC
12:00 AM,66.2,64.4,94,29.89,-9999.0,Variable,2.3,-,N/A,,Overcast,0,2013-01-16 22:00:00
2:00 AM,67,65,92,29.88,1,WNW,5.8,,,,,300,2013-01-17 00:00:00
3:00 AM,66.2,66.2,100,29.86,0.6,West,6.9,-,N/A,Fog,Fog,260,2013-01-17 01:00:00
4:00 AM,68.0,66.2,94,29.89,1.1,NW,6.9,-,N/A,,Overcast,320,2013-01-17 02:00:00
5:00 AM,67,65,92,29.90,2,West,9.2,,,,Mist,260,2013-01-17 03:00:00
5:00 AM,68.0,66.2,94,29.92,1.9,West,6.9,-,N/A,,Overcast,260,2013-01-17 03:00:00
6:00 AM,68.0,66.2,94,29.89,1.2,NW,4.6,-,N/A,Rain,Light Rain,320,2013-01-17 04:00:00
7:00 AM,68.0,66.2,94,29.89,6.2,NE,5.8,-,N/A,Rain,Light Rain,50,2013-01-17 05:00:00
8:00 AM,69,66,88,29.86,12,SE,4.6,,,Rain,Light Rain,130,2013-01-17 06:00:00
8:00 AM,69.8,66.2,88,29.86,-9999.0,NE,4.6,-,N/A,,Clear,40,2013-01-17 06:00:00
9:00 AM,71.6,66.2,83,29.89,6.2,WSW,12.7,-,N/A,Fog,Partly Cloudy,240,2013-01-17 07:00:00
10:00 AM,77.0,68.0,74,29.89,6.2,North,4.6,-,N/A,,Partly Cloudy,360,2013-01-17 08:00:00
11:00 AM,82,69,55,29.84,19,ENE,5.8,,,,Mostly Cloudy,60,2013-01-17 09:00:00
11:00 AM,82.4,69.8,66,29.86,-9999.0,ENE,5.8,-,N/A,,Clear,70,2013-01-17 09:00:00
12:00 PM,75.2,68.0,78,29.92,6.2,WNW,11.5,-,N/A,Rain,Light Rain,290,2013-01-17 10:00:00
1:00 PM,77.0,69.8,78,29.86,6.2,NE,13.8,-,N/A,,Partly Cloudy,50,2013-01-17 11:00:00
2:00 PM,75,69,75,29.85,12,SSW,15.0,,,,Partly Cloudy,200,2013-01-17 12:00:00
2:00 PM,75.2,68.0,78,29.86,-9999.0,SSW,13.8,-,N/A,,Clear,200,2013-01-17 12:00:00
3:00 PM,78.8,68.0,69,29.86,6.2,South,5.8,-,N/A,,Partly Cloudy,180,2013-01-17 13:00:00
4:00 PM,75.2,68.0,78,29.86,6.2,SW,6.9,-,N/A,,Partly Cloudy,220,2013-01-17 14:00:00
5:00 PM,70,66,83,29.89,6,West,9.2,,,Rain-Thunderstorm,Thunderstorms and Rain,270,2013-01-17 15:00:00
5:00 PM,69.8,66.2,88,29.89,6.2,West,10.4,-,N/A,Rain-Thunderstorm,Light Thunderstorms and Rain,270,2013-01-17 15:00:00
6:00 PM,69.8,68.0,94,29.89,3.7,SW,8.1,-,N/A,Rain-Thunderstorm,Light Thunderstorms and Rain,220,2013-01-17 16:00:00
7:00 PM,71.6,68.0,88,29.89,5.0,SW,9.2,-,N/A,,Scattered Clouds,230,2013-01-17 17:00:00
8:00 PM,70,68,90,29.90,0,WSW,6.9,,,Fog,Heavy Fog,250,2013-01-17 18:00:00
8:00 PM,69.8,68.0,94,29.92,0.5,West,6.9,-,N/A,Fog,Fog,260,2013-01-17 18:00:00
9:00 PM,69.8,68.0,94,29.92,6.2,West,9.2,-,N/A,,Overcast,280,2013-01-17 19:00:00
10:00 PM,71.6,68.0,88,29.95,6.2,WNW,9.2,-,N/A,,Overcast,290,2013-01-17 20:00:00
11:00 PM,71.6,68.0,88,29.95,6.2,West,10.4,-,N/A,,Mostly Cloudy,280,2013-01-17 21:00:00